Theta_e
354 360 361 362 368 360 353 353 350 352 350 347 351 353 354 346 342 343 339 340 340 344 342 339 341 336 336 339 340 341 341 341 337 338 337 336 336 340 336 337 339 342 339 340 341 340 335 335 336
361 363 365 364 362 355 350 349 352 350 350 349 350 352 352 345 342 341 339 340 343 345 341 340 343 340 340 340 341 341 341 340 337 338 338 339 341 338 336 341 340 341 344 342 339 338 335 337 339
363 365 365 367 354 353 352 346 346 350 350 350 351 352 352 349 342 338 340 341 344 345 345 344 342 341 340 340 341 341 340 337 341 342 336 338 340 339 342 337 342 339 338 336 341 341 337 339 340
368 368 367 351 352 350 350 348 349 348 347 350 351 352 352 344 342 343 340 341 348 349 350 344 342 341 341 340 339 338 336 337 336 337 337 340 341 338 339 339 341 340 341 341 340 336 335 338 337
365 365 352 354 349 350 348 348 347 347 349 351 351 351 353 353 348 345 343 349 350 350 351 345 343 343 341 340 336 335 336 340 343 341 338 339 341 337 336 338 338 340 341 338 341 334 335 334 332
359 361 347 350 351 348 350 345 346 347 348 350 350 351 353 352 350 349 350 350 351 351 350 345 343 340 336 335 345 341 343 340 338 344 341 339 339 338 334 329 336 337 339 338 338 334 335 336 335
352 350 346 349 351 351 349 346 346 348 347 351 350 352 351 353 351 350 350 351 351 351 350 349 340 340 343 341 342 342 338 336 336 336 341 338 339 339 337 335 338 337 338 339 339 340 339 337 339
344 344 346 348 353 352 348 349 345 346 348 349 349 353 351 352 351 353 351 351 352 350 349 348 346 341 339 338 335 334 335 332 333 337 337 338 337 337 336 338 334 339 337 338 339 335 336 337 338
344 348 349 348 350 351 349 347 346 346 347 347 350 351 350 351 351 352 351 352 350 344 348 346 348 345 346 344 340 332 331 333 333 338 332 334 337 340 341 339 335 331 331 335 338 332 329 332 334
345 348 349 348 348 349 348 347 347 347 347 348 349 350 351 350 351 351 351 350 352 349 347 346 345 345 346 350 348 343 344 344 341 340 344 338 345 346 340 341 338 337 335 337 334 329 328 326 325
344 347 348 348 347 347 348 348 348 348 348 347 350 350 349 352 351 351 351 348 347 346 346 345 344 344 347 349 348 347 347 349 345 342 339 341 348 345 344 343 341 342 340 336 341 338 338 339 339
345 346 347 348 347 347 344 343 347 347 348 348 349 349 348 348 349 347 349 346 346 345 343 344 346 350 348 346 350 346 347 345 345 345 338 345 343 346 343 344 344 340 340 340 343 343 339 343 344
346 346 347 347 347 346 344 344 345 346 348 348 349 349 348 348 348 347 346 345 343 343 343 345 346 347 347 348 348 344 347 348 349 344 347 342 346 345 342 343 343 342 339 343 344 343 343 342 344
343 346 348 348 347 349 349 348 346 347 348 348 349 348 347 348 348 347 344 343 342 341 343 347 347 348 343 343 342 346 344 346 347 348 348 346 347 348 343 346 343 343 345 342 343 343 343 342 342
343 347 346 348 349 344 344 349 348 347 348 348 349 348 347 348 348 346 346 346 345 343 343 346 348 344 339 343 346 343 344 347 347 347 347 347 345 343 343 344 345 344 344 344 341 340 341 342 341
343 347 354 346 351 343 339 347 348 347 348 349 349 349 348 348 348 349 349 350 349 347 346 347 349 351 346 347 349 348 351 351 352 349 346 343 343 345 346 346 346 346 345 344 344 343 341 341 342
345 349 348 349 346 349 350 354 350 348 348 349 350 349 349 349 348 348 348 349 348 349 349 349 349 350 352 351 351 349 347 343 338 342 339 344 342 341 341 345 348 347 347 347 347 346 345 345 344
348 350 347 348 346 344 351 354 351 349 349 349 349 349 349 349 349 348 348 348 349 349 350 350 350 351 352 345 348 349 348 348 346 348 346 346 340 339 342 339 342 343 344 347 348 349 347 347 347
345 347 348 345 340 340 342 348 353 350 349 349 348 348 348 349 349 349 349 348 349 349 353 351 352 352 354 353 351 349 349 352 353 351 352 348 347 347 348 349 350 350 350 349 347 347 347 345 343
342 342 342 343 341 340 345 346 344 347 350 349 348 348 348 349 348 350 349 347 348 350 350 352 352 355 352 356 355 351 347 348 348 353 352 349 348 345 347 350 353 353 351 351 350 350 348 344 348
341 340 343 344 343 340 342 344 343 350 351 350 349 348 348 349 349 349 349 349 350 346 344 354 352 354 348 356 356 355 352 347 349 349 352 351 345 345 349 350 350 350 349 352 350 350 349 347 347
340 339 341 342 340 340 342 344 345 345 349 351 350 350 347 349 350 350 350 347 351 345 337 352 356 354 347 357 357 356 355 349 354 348 351 342 341 339 347 348 349 346 345 344 352 354 347 347 347
340 340 341 341 341 340 339 344 351 345 351 342 347 350 349 348 351 349 351 349 347 351 353 354 358 356 355 356 351 353 352 352 345 344 344 342 347 349 345 344 342 347 348 349 348 347 346 346 346
339 339 339 340 339 339 343 343 351 351 349 339 341 344 350 349 351 349 353 350 348 351 354 361 360 355 356 346 346 347 341 342 346 342 344 351 350 350 349 347 341 342 344 347 348 346 346 345 344
338 338 340 341 340 340 344 345 346 346 344 341 343 350 350 350 351 353 350 346 350 355 357 360 358 355 351 345 349 343 340 340 344 343 347 348 348 349 347 342 341 340 340 340 341 344 346 345 346
335 335 339 344 339 343 347 345 346 345 343 344 344 349 350 353 354 354 351 352 354 355 357 358 356 350 352 348 345 342 341 344 346 345 349 349 347 345 341 337 331 327 324 324 324 330 341 343 344
333 336 336 336 334 335 339 344 342 342 344 345 345 348 349 354 355 357 357 356 355 357 357 357 354 351 350 351 349 348 341 345 344 343 345 342 341 337 332 323 321 320 320 322 318 330 334 334 333
331 332 333 334 337 337 335 346 349 353 353 353 348 349 350 354 356 358 356 355 355 355 354 353 353 351 350 349 347 346 346 346 343 340 338 333 328 322 319 318 321 324 326 323 318 318 331 330 330
331 330 331 332 333 336 337 347 348 354 348 350 344 352 352 354 357 356 356 355 354 354 353 352 350 349 347 347 345 343 341 338 336 334 329 326 325 323 322 323 327 326 324 322 323 325 328 328 330
331 331 331 333 332 333 337 341 347 347 343 343 340 353 354 355 356 355 356 355 356 355 352 349 347 346 346 344 341 338 336 334 330 327 329 325 325 328 328 322 325 326 325 316 316 322 325 327 327
Wind_Speed
12 15 8 9 5 4 9 8 13 9 17 16 29 22 22 33 16 6 27 26 28 17 17 17 16 14 15 14 12 11 11 10 12 12 12 10 9 8 7 7 8 8 8 9 9 8 8 9 10
5 3 6 7 1 11 11 12 19 11 16 15 23 25 25 16 15 22 32 29 22 20 20 17 15 13 12 11 10 9 10 9 11 11 10 8 9 9 9 9 9 9 8 8 8 8 8 9 10
10 9 10 4 9 10 7 11 11 21 11 14 21 20 11 9 20 38 23 30 25 19 17 17 16 14 12 12 11 9 9 9 9 8 9 9 9 9 8 8 8 8 8 8 9 8 8 9 9
3 7 12 9 15 14 11 9 16 8 13 24 24 18 18 22 29 21 35 27 19 12 13 15 16 14 12 10 10 9 8 9 8 7 7 9 8 8 7 7 7 8 9 8 9 8 9 9 9
15 10 6 11 14 12 11 12 14 12 18 24 27 18 24 22 22 25 26 18 16 17 15 13 14 13 11 10 9 9 9 9 7 6 8 8 8 7 6 4 5 7 7 7 7 8 9 9 9
17 14 11 12 14 12 10 11 16 15 21 25 27 24 17 27 25 24 19 17 17 15 14 13 13 13 11 9 10 9 9 7 5 4 7 8 6 6 4 3 4 5 6 6 7 7 8 5 6
14 4 15 14 12 9 14 10 10 19 17 25 27 21 21 26 24 26 19 17 15 22 17 13 15 14 11 11 10 9 7 6 5 4 5 5 4 5 4 1 5 6 6 6 7 7 7 6 6
12 11 18 15 12 8 9 14 10 14 18 21 22 16 21 26 26 23 17 13 10 15 10 12 12 11 11 10 7 6 4 4 4 4 3 3 3 1 4 6 8 6 6 6 7 6 7 8 7
9 12 13 17 12 6 13 13 13 12 9 8 20 28 28 27 24 22 19 18 15 22 23 16 12 10 11 8 4 2 3 3 3 2 3 2 1 3 7 4 7 6 7 7 7 6 8 9 8
14 11 16 15 14 13 14 12 12 12 10 18 23 27 30 27 24 20 17 18 21 17 15 18 14 12 9 18 5 6 1 5 3 2 3 3 2 4 5 5 5 5 6 6 8 6 6 8 10
16 14 15 13 11 14 12 10 16 10 12 16 24 26 24 30 28 24 22 21 16 16 18 15 13 11 15 15 13 4 3 9 6 7 8 4 6 5 5 5 2 4 6 10 11 11 8 6 6
9 17 14 11 12 10 11 11 11 15 13 19 23 23 21 19 20 17 14 15 14 13 11 14 11 7 8 7 5 11 10 9 9 7 4 8 7 6 5 5 8 8 8 7 14 16 14 14 13
16 12 13 10 10 14 15 13 11 12 14 19 23 22 19 19 17 16 16 15 15 14 13 13 12 13 10 7 9 10 9 7 10 12 11 9 10 10 8 12 12 7 9 6 11 9 6 13 11
5 13 16 13 11 15 11 3 11 11 17 21 22 21 17 17 18 15 14 14 15 15 14 15 15 13 10 7 5 20 14 8 10 5 7 9 10 12 13 12 12 9 7 11 12 7 11 16 20
7 28 28 9 13 9 21 9 10 15 18 22 21 20 17 17 17 17 17 17 17 16 18 16 11 8 11 5 6 14 16 10 11 10 10 12 13 13 14 15 16 13 14 15 13 14 17 15 19
13 23 10 24 22 14 22 8 14 19 21 21 20 18 17 17 17 17 18 17 19 16 19 18 15 12 5 3 6 6 10 9 7 3 4 8 7 6 7 10 11 10 11 11 12 13 15 16 19
17 12 11 13 12 19 12 6 17 21 20 20 19 18 18 15 15 14 16 16 15 18 17 17 14 15 11 5 6 7 7 7 10 9 2 8 6 2 3 8 8 8 10 11 12 12 14 14 15
13 7 22 25 13 10 12 15 19 24 21 19 19 19 17 17 16 16 18 17 16 12 16 14 16 19 14 2 12 11 8 9 9 8 6 3 2 3 5 3 2 5 8 9 9 13 15 16 16
21 29 32 19 6 8 13 2 15 19 21 22 19 19 18 19 17 19 17 16 16 17 14 15 13 13 16 12 11 9 7 4 6 4 9 6 1 6 5 6 8 7 5 7 9 11 10 15 14
7 14 11 8 4 6 14 16 29 29 20 20 19 21 19 20 22 19 17 16 18 14 14 18 17 16 17 12 10 7 5 5 5 2 8 7 6 7 7 7 9 8 9 10 11 10 10 13 14
11 15 6 9 17 8 8 5 11 14 17 17 17 20 21 19 24 21 16 17 17 15 13 18 20 21 12 11 11 9 4 3 3 5 4 6 4 3 3 6 7 8 8 8 10 12 11 14 11
12 12 9 16 10 13 10 11 7 6 3 4 16 19 23 21 25 24 19 19 16 17 18 27 24 18 12 15 10 5 5 1 2 7 3 2 4 5 4 4 5 7 8 8 8 9 11 12 14
16 19 5 10 14 17 22 4 4 15 5 17 20 22 21 26 30 25 21 20 14 6 7 18 21 16 15 15 3 9 9 5 3 8 3 7 2 3 5 6 8 6 7 8 9 10 10 11 13
13 19 17 13 11 13 8 11 4 6 9 17 39 41 24 27 29 26 22 20 12 9 11 17 16 16 16 14 9 11 8 6 5 7 9 6 2 6 8 9 11 12 11 11 12 12 13 13 13
18 17 12 12 12 7 6 3 7 9 23 26 32 29 22 28 35 27 23 18 15 14 12 12 16 20 19 14 15 13 8 10 8 8 8 6 8 6 10 12 12 13 13 13 14 12 13 14 14
21 20 14 16 14 4 4 5 5 13 44 40 14 22 25 34 34 26 21 17 16 12 15 14 15 17 15 12 11 8 8 4 6 8 2 4 2 8 11 12 13 13 14 14 14 9 10 12 11
21 18 21 18 19 16 12 3 13 11 16 5 10 22 24 36 30 26 20 18 17 15 14 12 12 12 9 8 6 4 8 8 6 6 6 5 8 7 11 10 11 12 13 14 11 7 7 13 13
19 20 16 12 17 18 15 11 6 20 10 6 4 16 20 30 30 25 21 22 20 14 13 12 12 10 9 10 8 6 7 6 4 4 6 7 8 8 9 9 9 8 10 13 13 8 6 10 11
14 17 18 17 12 12 14 4 19 25 20 11 4 14 20 23 25 24 24 21 17 21 16 15 13 15 11 12 11 10 6 4 3 2 4 4 7 7 7 6 6 7 11 11 12 10 11 8 10
16 18 19 13 14 15 15 2 17 23 9 2 5 17 21 24 26 25 23 20 22 21 16 13 14 13 13 11 9 7 6 4 2 1 5 4 5 5 7 8 11 10 9 11 10 10 13 15 11
Wind_Direction
104 76 90 253 283 98 7 52 66 90 76 65 66 69 68 134 134 179 160 157 148 158 142 139 134 137 134 136 129 123 115 104 105 107 110 108 109 106 110 110 113 120 126 121 119 122 120 124 127
122 124 263 272 337 46 54 75 84 78 74 58 82 82 71 93 129 144 156 166 154 146 145 144 139 144 148 150 144 135 124 115 110 111 104 102 107 103 111 116 122 118 123 122 125 127 123 126 124
166 222 247 241 62 83 73 80 74 81 47 64 61 75 68 110 133 139 156 153 146 143 138 147 142 141 140 142 142 140 133 122 119 107 102 100 109 108 111 115 122 117 117 120 128 137 136 131 127
268 257 235 69 71 69 79 75 74 43 91 108 102 69 98 131 141 136 149 141 140 148 142 154 154 154 152 153 146 143 134 122 110 100 99 92 98 90 102 113 123 123 127 127 132 133 134 133 128
250 262 84 88 66 69 64 93 117 85 71 96 101 105 100 130 154 151 143 149 146 158 174 179 163 161 164 161 150 147 135 127 117 108 90 95 107 96 95 111 128 132 133 140 144 143 141 135 132
262 223 60 55 68 49 87 82 85 90 88 102 101 104 115 128 135 151 151 158 160 153 152 172 158 159 158 157 144 148 144 138 131 109 106 116 121 117 124 136 151 156 149 149 155 153 162 167 154
285 69 81 85 77 56 55 60 67 94 121 111 115 113 134 137 145 150 159 167 151 155 158 160 158 157 155 157 153 153 147 141 144 138 121 128 130 131 13 283 175 175 174 174 174 175 188 188 170
323 71 83 81 78 84 117 53 58 77 102 139 115 127 149 145 148 150 155 156 151 138 167 161 174 167 171 165 162 167 166 152 152 146 148 146 139 205 324 274 215 185 187 190 193 207 213 212 211
324 76 58 67 86 117 124 88 83 115 114 67 124 141 146 143 144 152 154 150 172 171 167 164 168 177 169 212 174 183 178 159 153 169 141 158 351 26 18 147 178 213 219 217 213 217 220 225 233
91 69 58 66 76 75 78 116 143 123 110 111 117 127 152 151 155 157 166 163 182 167 163 169 170 177 195 190 193 130 74 124 147 278 232 125 285 277 12 28 172 203 238 247 240 230 239 241 234
87 101 95 65 78 95 122 144 149 167 131 125 128 138 152 156 160 168 168 166 171 163 162 165 166 171 184 195 169 171 183 196 250 260 257 168 225 252 278 314 286 231 250 237 256 245 246 245 269
100 88 90 89 89 99 90 75 63 61 102 129 142 147 155 162 161 177 160 162 154 171 175 164 166 196 211 233 162 173 173 199 254 277 192 215 231 198 251 288 304 272 273 212 254 239 237 219 235
121 120 105 106 103 80 72 81 98 101 117 133 144 154 160 170 172 164 163 164 165 174 176 173 185 215 218 211 207 186 152 226 204 256 230 249 233 237 228 226 254 272 246 241 269 264 265 217 251
140 147 144 144 115 106 90 107 108 122 133 139 151 160 169 171 166 164 164 165 175 178 181 182 191 220 206 199 234 198 191 178 261 264 257 213 226 241 242 249 259 253 246 237 233 249 256 244 227
169 50 10 151 146 83 60 341 132 147 148 152 162 168 163 173 166 172 176 175 180 180 182 185 206 203 224 228 129 170 187 207 238 252 280 277 273 254 251 247 262 258 258 251 254 243 252 251 250
252 101 177 274 117 139 126 229 150 160 162 164 169 173 170 174 172 172 175 172 179 182 174 184 192 209 170 169 187 181 180 203 213 230 290 307 266 266 259 257 258 267 258 269 267 261 257 260 260
5 19 283 246 145 161 176 247 159 173 174 171 174 178 180 179 173 176 177 177 180 184 178 179 184 182 200 197 225 231 222 193 156 157 257 8 102 63 317 260 254 278 283 279 280 283 279 278 279
186 57 291 269 167 198 183 158 164 179 177 175 180 176 185 183 189 179 180 184 175 178 180 193 186 177 189 194 204 234 217 205 242 280 298 314 165 271 1 12 156 326 282 278 285 284 293 296 293
190 178 207 233 147 229 273 265 120 186 190 176 183 175 186 186 188 179 193 178 174 175 179 200 197 189 188 203 198 212 218 210 265 282 311 327 273 294 307 329 324 318 338 299 293 289 283 303 304
279 267 246 23 140 233 106 198 106 248 201 187 183 174 190 188 173 174 189 184 178 163 195 207 207 218 211 201 212 218 188 202 242 215 278 316 339 345 319 321 316 329 325 317 310 301 276 296 312
257 271 117 161 264 276 290 188 180 171 194 193 194 192 191 189 172 176 181 182 156 145 270 213 213 220 217 194 211 223 234 237 299 231 223 307 358 27 15 346 347 337 326 321 307 315 303 314 320
241 275 321 315 289 285 211 286 165 294 170 291 210 202 195 189 178 171 174 139 155 162 171 206 205 220 204 188 211 195 182 319 294 274 250 356 10 18 16 355 341 340 335 326 322 323 318 310 312
261 283 197 281 293 286 284 191 255 271 357 333 279 220 206 178 167 171 175 173 166 206 196 174 195 206 201 194 175 230 197 173 215 286 309 324 324 9 300 317 314 320 332 325 324 321 316 311 304
260 268 276 279 271 271 3 15 131 172 210 194 250 261 197 171 170 172 175 177 157 168 169 175 199 201 189 188 193 196 270 251 218 240 293 267 247 238 276 294 294 289 291 299 302 304 310 307 298
246 251 261 248 252 261 75 97 164 110 279 231 219 217 186 163 161 161 167 165 155 156 164 170 202 190 193 204 201 229 264 239 226 242 254 248 231 258 268 281 287 287 290 295 293 295 306 305 304
228 249 254 255 260 176 312 236 166 104 263 217 170 161 171 147 150 162 158 164 166 167 166 181 203 182 202 202 229 219 231 205 222 221 197 211 177 272 291 308 312 313 316 314 312 340 309 306 313
253 250 244 274 279 278 242 182 136 165 358 238 152 150 161 151 155 158 161 165 165 165 167 185 191 178 173 172 158 185 195 206 229 200 174 220 249 267 302 316 320 325 322 318 332 333 333 307 316
237 259 251 230 254 272 273 205 118 81 283 2 296 151 153 147 152 156 162 159 166 161 174 182 169 151 155 144 158 157 154 164 194 221 237 270 289 304 313 326 337 329 314 327 338 340 339 332 338
220 241 259 278 280 276 263 140 151 153 178 172 264 160 159 152 152 156 157 156 173 174 182 186 162 163 146 145 153 133 135 145 162 296 310 322 325 344 340 345 327 333 342 4 6 28 352 5 16
232 254 236 248 258 266 281 221 171 162 133 213 151 173 163 159 157 161 156 158 165 164 159 153 148 139 147 163 154 159 173 172 244 224 332 328 346 24 349 22 22 36 350 2 8 13 23 7 16